Flag for U.S.A. Weather past 2 weeks in Juneau, Alaska, U.S.A.

Now
53 °F

Mostly cloudy.


Feels Like: 51 °F
Forecast: 48 / 56 °F
Wind: 8 mph from East

Location: Juneau International Airport

Current Time: Aug 30, 2014 at 10:15:39 AM

Latest Report: Aug 30, 2014 at 8:53 AM


Visibility: 10 mi

Pressure: 29.63 "Hg

Humidity: 93%

Dew point: 51 °F

Location of JuneauLocation

Historic Weather in Juneau — Graph

°F

Juneau temperature yesterday

Maximum temperature yesterday: 55 °F (at 1:53 PM)
Minimum temperature yesterday: 50 °F (at 4:53 AM)
Average temperature yesterday: 52 °F

Past Weeks' High & Low Weather Summary

 TemperatureHumidityPressure
High71 °F (Aug 21, 3:53 PM)100% (Aug 15, 9:56 PM)30.21 "Hg (Aug 15, 9:56 PM)
Low44 °F (Aug 20, 5:53 AM)47% (Aug 21, 2:53 PM)29.55 "Hg (Aug 29, 4:53 PM)
Average56 °F88%29.98 "Hg
* Reported Aug 15 8:53 AM — Aug 30 8:53 AM, Juneau, Weather by CustomWeather, © 2014

Note: Actual official high and low records may vary slightly from our data, if they occured in-between our weather recording intervals... More about our weather records

Advertising

Juneau weather history for previous 24 hours

 ConditionsComfort  
Time TempWeatherWind HumidityBarometerVisibility
8:53 AM
Aug 30
53 °FMostly cloudy.8 mph93%29.63 "Hg10 mi
7:53 AM51 °FMostly cloudy.8 mph96%29.62 "Hg10 mi
6:53 AM51 °FBroken clouds.3 mph92%29.62 "Hg10 mi
5:53 AM50 °FMostly cloudy.No wind96%29.61 "Hg10 mi
4:53 AM50 °FLight rain. Mostly cloudy.6 mph96%29.59 "Hg10 mi
3:53 AM51 °FOvercast.7 mph96%29.59 "Hg10 mi
2:53 AM51 °FLight rain. Mostly cloudy.5 mph96%29.59 "Hg10 mi
1:53 AM51 °FOvercast.6 mph96%29.58 "Hg10 mi
12:53 AM52 °FOvercast.No wind93%29.58 "Hg10 mi
11:53 PM
Aug 29
52 °FLight rain. Mostly cloudy.7 mph93%29.57 "Hg10 mi
10:53 PM52 °FLight rain. Mostly cloudy.5 mph97%29.57 "Hg10 mi
9:53 PM52 °FLight rain. Mostly cloudy.8 mph93%29.57 "Hg10 mi
8:53 PM52 °FMore clouds than sun.8 mph97%29.56 "Hg10 mi
7:53 PM52 °FLight rain. Mostly cloudy.8 mph97%29.55 "Hg10 mi
6:53 PM53 °FLight rain. Mostly cloudy.9 mph96%29.56 "Hg10 mi
5:53 PM54 °FLight rain. Mostly cloudy.3 mph93%29.55 "Hg10 mi
4:53 PM55 °FLight rain. Mostly cloudy.No wind90%29.55 "Hg10 mi
3:53 PM54 °FLight rain. More clouds than sun.No wind90%29.56 "Hg10 mi
2:53 PM54 °FLight rain. More clouds than sun.5 mph90%29.56 "Hg8 mi
1:53 PM55 °FLight rain. Cloudy.8 mph87%29.55 "Hg10 mi
12:53 PM54 °FMostly cloudy.7 mph93%29.56 "Hg10 mi
10:53 AM53 °FLight rain. Mostly cloudy.6 mph89%29.58 "Hg10 mi
Weather by CustomWeather, © 2014

See weather overviewHow to use our weather pages